United States

Ashburn, VA Weather Archive

Below you will find the last 24 hours of weather readings for Ashburn VA

Ashburn VA Today's Weather Data

Observed at: Ashburn, VA

Hour Observerd Temp Pressure Visibility Humidity Dew Point Wind
21:00 Light Snow 31°F (-0.6°C) 102.27 kPa 2.5 miles 95% 29.7°F (-1.3°C) 4.6 mph WSW 258°
20:00 Light Snow 31°F (-0.6°C) 102.27 kPa 2.5 miles 94% 29.5°F (-1.4°C) 3.5 mph SSE 157°
19:00 Light Snow 33°F (0.6°C) 102.37 kPa 1.25 miles 88% 29.8°F (-1.2°C) 3.5 mph ESE 121°
18:00 Light Snow 35°F (1.7°C) 102.4 kPa 1 miles 70% 26.2°F (-3.2°C) 1 mph SE 127°3 mph
17:00 Light Snow 36°F (2.2°C) 102.4 kPa 1 miles 68% 26.5°F (-3.1°C) 1 mph ESE 117°3 mph
16:00 Overcast 36°F (2.2°C) 102.47 kPa 10 miles 66% 25.8°F (-3.5°C) 1 mph ESE 122°6 mph
15:00 Overcast 36°F (2.2°C) 102.47 kPa 10 miles 63% 24.6°F (-4.1°C) 1 mph S 186°5 mph
14:00 Overcast 36°F (2.2°C) 102.51 kPa 10 miles 62% 24.3°F (-4.3°C) 2 mph SSE 148°10 mph
13:00 Overcast 36°F (2.2°C) 102.61 kPa 10 miles 64% 25°F (-3.9°C) 2 mph ESE 117°5 mph
12:00 Overcast 36°F (2.2°C) 102.74 kPa 10 miles 65% 25.4°F (-3.7°C) 2 mph ESE 114°6 mph
11:00 Overcast 35°F (1.7°C) 102.88 kPa 10 miles 70% 26.2°F (-3.2°C) 2 mph SE 126°8 mph
10:00 Overcast 34°F (1.1°C) 102.81 kPa 10 miles 75% 26.9°F (-2.8°C) 5.8 mph ESE 104°
09:00 Mostly Cloudy 31°F (-0.6°C) 102.78 kPa 10 miles 81% 25.9°F (-3.4°C) 5.8 mph E 82°
08:00 Mostly Cloudy 31°F (-0.6°C) 102.78 kPa 10 miles 79% 25.3°F (-3.7°C) 3.5 mph E 82°
07:00 Fair 33°F (0.6°C) 102.71 kPa 10 miles 76% 26.3°F (-3.2°C) 3.5 mph E 82°
06:00 Overcast 33°F (0.6°C) 102.68 kPa 10 miles 77% 26.6°F (-3°C) 3.5 mph WNW 293°
05:00 Overcast 34°F (1.1°C) 102.68 kPa 10 miles 74% 26.6°F (-3°C) 5.8 mph WNW 295°
04:00 Overcast 35°F (1.7°C) 102.68 kPa 10 miles 69% 25.9°F (-3.4°C) 4.6 mph WNW 295°
03:00 Overcast 34°F (1.1°C) 102.71 kPa 10 miles 72% 25.9°F (-3.4°C) 4.6 mph WNW 293°
02:00 Overcast 35°F (1.7°C) 102.64 kPa 10 miles 71% 26.6°F (-3°C) 4.6 mph WNW 295°
01:00 Overcast 35°F (1.7°C) 102.64 kPa 10 miles 70% 26.2°F (-3.2°C) 4.6 mph WNW 295°
00:00 Overcast 36°F (2.2°C) 102.64 kPa 10 miles 69% 26.8°F (-2.9°C) 8.1 mph ENE 68°10 mph
23:00 Overcast 36°F (2.2°C) 102.64 kPa 10 miles 69% 26.8°F (-2.9°C) 3.5 mph E 90°
22:00 Overcast 37°F (2.8°C) 102.61 kPa 10 miles 74% 29.5°F (-1.4°C) 3.5 mph ENE 72°6 mph